[[{"header":{"parameterUnit":"m.s-1","parameterCategory":1,"la1":30.2991,"la2":30.254,"lo1":-89.0895,"lo2":-89.0444,"dy":0.0017,"dx":0.0017,"nx":28,"ny":28,"refTime":"2025-12-24T03:00:00:Z","depth":0,"parameterNumber":2,"parameterNumberName":"U-component_of_WINDS"},"data":[0,0,0,0,0,0,0,0,0,0,0,0,0,0,0,0,0,0,0,0,0,0,0,0,0,0,0,0,0,0,0,0,0,0,0,0,0,0,0,0,0,0,0,0,0,0,0,0,0,0,0,0,0,0,0,0,0,0,-1.7455,-1.7455,0,-1.7494,-1.7495,-1.7495,-1.7462,-1.746,-1.7459,-1.7458,-1.7499,-1.7501,-1.7503,0,0,0,0,0,0,0,0,0,0,0,0,0,-1.7352,-1.7354,-1.7455,-1.7455,-1.7456,-1.7494,-1.7495,-1.7495,-1.7462,-1.746,-1.7458,-1.7457,-1.7498,-1.7501,-1.7504,0,0,0,0,0,0,0,0,0,0,0,0,0,-1.7395,-1.7355,-1.7455,-1.7444,-1.7443,-1.7494,-1.7495,-1.7495,-1.7462,-1.746,-1.7458,-1.7456,-1.7497,-1.75,-1.7504,-1.7568,0,0,-1.7515,-1.7517,0,0,0,0,0,0,0,0,-1.7392,-1.7399,-1.7445,-1.7445,-1.7444,-1.7471,-1.7474,-1.752,-1.7463,-1.7455,-1.7457,-1.7455,-1.7491,-1.7495,-1.7507,-1.757,-1.7572,-1.7515,-1.7517,-1.7519,-1.752,0,0,0,0,0,0,0,-1.7389,-1.7397,-1.747,-1.7446,-1.7445,-1.7437,-1.7441,-1.7482,-1.7484,-1.7456,-1.7453,-1.7458,-1.7491,-1.7504,-1.7508,-1.7572,-1.7515,-1.7518,-1.7521,-1.7522,-1.769,-1.7692,0,0,0,0,0,0,-1.7387,-1.7394,-1.7469,-1.7472,-1.7412,-1.7441,-1.7445,-1.7464,-1.7484,-1.7485,-1.746,-1.7457,-1.7499,-1.7504,-1.7509,-1.7585,-1.7519,-1.7522,-1.7524,-1.7688,-1.7691,-1.7693,0,0,0,0,0,0,-1.7385,-1.7394,-1.7468,-1.7432,-1.7441,-1.7445,-1.7467,-1.7466,-1.7479,-1.7487,-1.7488,-1.7473,-1.7497,-1.7504,-1.7554,-1.7586,-1.7524,-1.7527,-1.7685,-1.7689,-1.7692,-1.7738,0,0,0,0,0,0,-1.7383,-1.7394,-1.7418,-1.7433,-1.7443,-1.7511,-1.7469,-1.7469,-1.7486,-1.7481,-1.7499,-1.75,-1.7496,-1.7548,-1.7557,-1.759,-1.753,-1.7682,-1.7687,-1.7691,-1.7733,-1.7742,-1.775,0,0,0,0,0,-1.7379,-1.7429,-1.7419,-1.7428,-1.7473,-1.7513,-1.7519,-1.7512,-1.7488,-1.7513,-1.7518,-1.75,-1.7582,-1.7554,-1.7563,-1.7598,-1.768,-1.7685,-1.769,-1.7729,-1.7741,-1.775,0,0,0,0,0,0,-1.7417,-1.7431,-1.742,-1.7476,-1.7494,-1.7507,-1.7537,-1.7524,-1.7549,-1.7544,-1.7536,-1.754,-1.7592,-1.76,-1.7569,-1.7661,-1.7627,-1.7634,-1.7653,-1.7664,-1.7672,-1.7668,-1.7533,0,0,0,0,0,-1.7433,-1.7464,-1.7474,-1.7523,-1.7532,-1.7534,-1.7551,-1.7544,-1.7562,-1.7569,-1.7578,-1.7596,-1.7626,-1.7646,-1.7673,-1.7735,-1.7738,-1.7763,-1.7772,-1.7779,-1.7785,-1.7818,-1.7829,-1.771,-1.771,-1.771,0,0,-1.7464,-1.7475,-1.7495,-1.7531,-1.7543,-1.7576,-1.754,-1.7576,-1.76,-1.7575,-1.7622,-1.7629,-1.7649,-1.7705,-1.773,-1.7713,-1.7818,-1.7785,-1.7791,-1.7793,-1.7824,-1.7835,-1.7845,-1.7714,-1.7713,-1.7713,0,0,-1.7537,-1.7549,-1.7591,-1.7605,-1.7624,-1.7625,-1.7636,-1.7651,-1.7655,-1.7702,-1.7684,-1.7714,-1.7765,-1.778,-1.7794,-1.7875,-1.7859,-1.7885,-1.7928,-1.796,-1.7969,-1.7977,-1.8006,-1.8016,-1.7891,-1.7891,-1.7891,0,-1.7574,-1.7621,-1.7614,-1.7652,-1.7668,-1.7647,-1.769,-1.7704,-1.7732,-1.7744,-1.7725,-1.7789,-1.7801,-1.786,-1.788,-1.7893,-1.7904,-1.7881,-1.7968,-1.7977,-1.7984,-1.8011,-1.8022,-1.7894,-1.7893,-1.7893,-1.7893,0,-1.7665,-1.7699,-1.773,-1.7758,-1.7778,-1.7818,-1.7817,-1.7839,-1.7832,-1.7835,-1.7883,-1.7897,-1.7927,-1.7941,-1.7935,-1.8,-1.7989,-1.797,-1.7935,-1.7998,-1.8023,-1.8034,-1.7898,-1.7897,-1.7896,-1.7895,0,0,-1.7762,-1.7786,-1.7797,-1.781,-1.7831,-1.7857,-1.7896,-1.7926,-1.7944,-1.7965,-1.7997,-1.8042,-1.8025,-1.8041,-1.8036,-1.8065,-1.8128,-1.8042,-1.8042,-1.8057,-1.82,-1.8213,-1.8225,-1.8118,-1.812,-1.8122,-1.8198,0,-1.7835,-1.7903,-1.7899,-1.7963,-1.7993,-1.7975,-1.801,-1.8027,-1.8031,-1.8059,-1.8064,-1.8095,-1.807,-1.808,-1.8108,-1.8114,-1.8156,-1.8109,-1.8148,-1.815,-1.8142,-1.8238,-1.8252,-1.8323,-1.8208,-1.8209,-1.821,0,-1.793,-1.7953,-1.802,-1.8037,-1.805,-1.8081,-1.8107,-1.8134,-1.8153,-1.8155,-1.8174,-1.8164,-1.8205,-1.8171,-1.8227,-1.8194,-1.8211,-1.8217,-1.8219,-1.8221,-1.8183,-1.8242,-1.8346,-1.8356,-1.8226,-1.8225,-1.8224,0,-1.7992,-1.8041,-1.8087,-1.8099,-1.812,-1.8142,-1.8152,-1.8169,-1.8187,-1.8211,-1.8223,-1.8252,-1.8267,-1.829,-1.8289,-1.8265,-1.8346,-1.8312,-1.8348,-1.8348,-1.8364,-1.8363,-1.8471,-1.8377,-1.8377,-1.8377,-1.8377,0,-1.8074,-1.8115,-1.8116,-1.8144,-1.819,-1.8186,-1.8232,-1.8239,-1.8255,-1.8285,-1.8272,-1.83,-1.8298,-1.8327,-1.8327,-1.8373,-1.838,-1.8382,-1.8381,-1.8382,-1.8382,-1.8392,-1.8386,-1.838,-1.8379,-1.8378,-1.8378,0,-1.8151,-1.8153,-1.8202,-1.8218,-1.8223,-1.8257,-1.8271,-1.8298,-1.8302,-1.834,-1.8349,-1.8355,-1.8389,-1.839,-1.8429,-1.8429,-1.8484,-1.8479,-1.8478,-1.8476,-1.8512,-1.8508,-1.8628,-1.8644,-1.8542,-1.8543,-1.8543,0,-1.8202,-1.8233,-1.8253,-1.8272,-1.8283,-1.8314,-1.8332,-1.833,-1.835,-1.8375,-1.8399,-1.8432,-1.8457,-1.8512,-1.852,-1.855,-1.8544,-1.8584,-1.8548,-1.8548,-1.8543,-1.8541,-1.8544,-1.8591,-1.8592,-1.8593,-1.8593,0,-1.8292,-1.8292,-1.8319,-1.8347,-1.8369,-1.8391,-1.8412,-1.8428,-1.8428,-1.8451,-1.8485,-1.8505,-1.8545,-1.8577,-1.8607,-1.8617,-1.8606,-1.8605,-1.8615,-1.8615,-1.8613,-1.8614,-1.8495,-1.8602,-1.8601,-1.86,-1.86,-1.86,-1.8357,-1.8384,-1.8402,-1.8433,-1.8448,-1.8468,-1.8494,-1.8501,-1.8529,-1.8561,-1.8559,-1.8596,-1.8616,-1.8654,-1.8667,-1.8697,-1.8683,-1.8697,-1.8701,-1.8704,-1.8707,-1.861,-1.8703,-1.8702,-1.8702,-1.8702,-1.8702,0,-1.8445,-1.8456,-1.8485,-1.8514,-1.8538,-1.8526,-1.8548,-1.8569,-1.8602,-1.8621,-1.8647,-1.8686,-1.8718,-1.8729,-1.876,-1.8782,-1.8777,-1.879,-1.8787,-1.879,-1.8718,-1.8706,-1.8793,-1.8793,-1.8793,-1.8793,-1.8793,-1.8793,-1.8494,-1.8539,-1.8541,-1.8594,-1.8605,-1.8641,-1.8655,-1.8673,-1.8688,-1.8733,-1.8759,-1.8766,-1.8782,-1.8814,-1.8843,-1.8846,-1.8857,-1.8872,-1.8872,-1.8804,-1.8795,-1.8786,-1.8775,-1.8875,-1.8875,-1.8941,-1.8942,-1.8942]},{"header":{"parameterUnit":"m.s-1","parameterCategory":1,"la1":30.2991,"la2":30.254,"lo1":-89.0895,"lo2":-89.0444,"dy":0.0017,"dx":0.0017,"nx":28,"ny":28,"refTime":"2025-12-24T03:00:00:Z","depth":0,"parameterNumber":3,"parameterNumberName":"V-component_of_WINDS"},"data":[0,0,0,0,0,0,0,0,0,0,0,0,0,0,0,0,0,0,0,0,0,0,0,0,0,0,0,0,0,0,0,0,0,0,0,0,0,0,0,0,0,0,0,0,0,0,0,0,0,0,0,0,0,0,0,0,0,0,0.6207,0.6208,0,0.6316,0.6317,0.6318,0.6397,0.6398,0.6398,0.6399,0.6513,0.6516,0.6518,0,0,0,0,0,0,0,0,0,0,0,0,0,0.6073,0.6075,0.6207,0.6208,0.621,0.6315,0.6317,0.6318,0.6397,0.6398,0.6399,0.6399,0.6512,0.6515,0.6518,0,0,0,0,0,0,0,0,0,0,0,0,0,0.6152,0.6076,0.6207,0.6262,0.6268,0.6315,0.6317,0.6319,0.6397,0.6398,0.6399,0.64,0.6511,0.6515,0.6519,0.6521,0,0,0.653,0.6531,0,0,0,0,0,0,0,0,0.6147,0.6157,0.6252,0.6258,0.6265,0.6344,0.6312,0.6387,0.6397,0.6348,0.6399,0.64,0.6456,0.6464,0.6483,0.6526,0.6531,0.653,0.6532,0.6534,0.6535,0,0,0,0,0,0,0,0.6142,0.6152,0.625,0.6254,0.6261,0.6283,0.6295,0.6326,0.6395,0.6352,0.6358,0.637,0.646,0.6479,0.6486,0.6533,0.653,0.6533,0.6535,0.6537,0.6589,0.6588,0,0,0,0,0,0,0.6127,0.6147,0.6247,0.6253,0.6207,0.6284,0.6298,0.6317,0.6395,0.6408,0.6369,0.6373,0.6472,0.6482,0.649,0.6501,0.6534,0.6537,0.6539,0.6589,0.6588,0.6588,0,0,0,0,0,0,0.6124,0.6135,0.6242,0.6202,0.6217,0.6285,0.6307,0.6319,0.6338,0.6408,0.6421,0.6375,0.6473,0.6485,0.6514,0.6506,0.6539,0.6542,0.659,0.6589,0.6588,0.652,0,0,0,0,0,0,0.612,0.6133,0.6134,0.6201,0.6219,0.6262,0.6306,0.632,0.6344,0.6351,0.6417,0.6429,0.6475,0.6508,0.6517,0.6511,0.6545,0.6591,0.659,0.6588,0.6523,0.6517,0.6511,0,0,0,0,0,0.6115,0.611,0.6133,0.6145,0.622,0.6261,0.6272,0.6323,0.6343,0.6345,0.639,0.6427,0.6505,0.651,0.6521,0.6516,0.6592,0.659,0.6589,0.6526,0.6518,0.6511,0,0,0,0,0,0,0.604,0.612,0.6146,0.6163,0.6205,0.6274,0.6278,0.6313,0.635,0.6355,0.6419,0.6433,0.6456,0.6489,0.6493,0.6525,0.6554,0.6554,0.6502,0.6495,0.6489,0.6481,0.6548,0,0,0,0,0,0.6025,0.605,0.6119,0.6128,0.6147,0.6209,0.6228,0.6265,0.6311,0.6329,0.6376,0.6421,0.6456,0.6477,0.6513,0.6529,0.6546,0.6532,0.6525,0.652,0.652,0.6534,0.6529,0.6582,0.6582,0.6582,0,0,0.5996,0.6042,0.6054,0.6114,0.615,0.6177,0.6223,0.6248,0.6269,0.6334,0.6364,0.64,0.6454,0.6477,0.6489,0.6505,0.6509,0.6518,0.6513,0.6516,0.6532,0.6527,0.6522,0.658,0.6581,0.6581,0,0,0.5955,0.5992,0.6004,0.604,0.6095,0.6137,0.614,0.6205,0.6231,0.6262,0.6312,0.6339,0.6397,0.6434,0.6461,0.6438,0.6474,0.6448,0.6416,0.6429,0.6425,0.6421,0.6415,0.6412,0.6447,0.6447,0.6447,0,0.5912,0.5952,0.6007,0.603,0.6056,0.6115,0.613,0.6163,0.6226,0.6244,0.6261,0.6337,0.6377,0.6411,0.6406,0.6425,0.6432,0.644,0.6421,0.6418,0.6416,0.6411,0.6408,0.6444,0.6444,0.6444,0.6445,0,0.5897,0.5924,0.5928,0.5988,0.6015,0.6033,0.6093,0.6114,0.6149,0.6189,0.6222,0.6273,0.6322,0.6332,0.6366,0.6372,0.6381,0.6408,0.6438,0.6406,0.6403,0.6401,0.6439,0.644,0.6441,0.6442,0,0,0.5811,0.5903,0.5903,0.5932,0.5998,0.6022,0.6045,0.6092,0.6109,0.6152,0.6175,0.6224,0.625,0.6281,0.632,0.6331,0.6313,0.6358,0.6361,0.635,0.6326,0.6305,0.6302,0.6338,0.6338,0.6338,0.6322,0,0.5782,0.5824,0.5876,0.5901,0.5929,0.5987,0.6008,0.6052,0.6091,0.6122,0.6166,0.6201,0.6232,0.6251,0.6265,0.6312,0.631,0.6314,0.6362,0.6363,0.6347,0.63,0.6278,0.626,0.6321,0.6321,0.632,0,0.5753,0.5793,0.5821,0.5887,0.5901,0.5918,0.5967,0.5995,0.6047,0.6076,0.611,0.6153,0.6183,0.6209,0.6253,0.6255,0.6278,0.6305,0.6305,0.6312,0.634,0.6307,0.6256,0.6254,0.6319,0.6319,0.6319,0,0.569,0.5751,0.5776,0.5799,0.5877,0.5888,0.5921,0.5974,0.6,0.6044,0.6062,0.6108,0.6134,0.617,0.6226,0.6239,0.6264,0.6294,0.629,0.6289,0.6293,0.6292,0.6246,0.6306,0.6306,0.6306,0.6306,0,0.5652,0.5668,0.5749,0.5765,0.5785,0.5846,0.5865,0.5903,0.5951,0.5977,0.6031,0.6055,0.6126,0.6159,0.6203,0.6234,0.6245,0.627,0.6282,0.6266,0.6263,0.6282,0.6285,0.6305,0.6305,0.6305,0.6306,0,0.5585,0.564,0.5672,0.5743,0.5762,0.5773,0.5836,0.5855,0.5898,0.5931,0.5942,0.601,0.6052,0.6111,0.6171,0.6201,0.6227,0.6244,0.6208,0.6216,0.6209,0.6209,0.6174,0.6174,0.6232,0.6231,0.6231,0,0.5558,0.5571,0.5644,0.5665,0.5696,0.5729,0.5757,0.5818,0.5844,0.5907,0.5919,0.5965,0.6005,0.607,0.6127,0.6174,0.6194,0.6179,0.6202,0.6186,0.6196,0.6195,0.6198,0.6173,0.6172,0.6171,0.6171,0,0.5505,0.5532,0.5568,0.5614,0.5645,0.5685,0.5727,0.5742,0.5813,0.584,0.5884,0.5915,0.5977,0.6023,0.6079,0.6116,0.6156,0.6163,0.6165,0.6149,0.6129,0.6142,0.6195,0.6164,0.6164,0.6165,0.6165,0.6166,0.5458,0.5474,0.5528,0.5567,0.5606,0.5645,0.5667,0.5713,0.575,0.5805,0.584,0.5882,0.5938,0.6017,0.6052,0.6088,0.6104,0.6106,0.6107,0.6107,0.6102,0.6122,0.6098,0.6098,0.6098,0.6099,0.6099,0,0.5409,0.5448,0.5483,0.5541,0.5573,0.5607,0.5657,0.5682,0.5718,0.5766,0.5805,0.5857,0.5903,0.5963,0.6014,0.6032,0.6052,0.6043,0.6043,0.6051,0.6084,0.6078,0.6026,0.6026,0.6026,0.6026,0.6026,0.6026,0.5387,0.5417,0.545,0.55,0.554,0.5581,0.5607,0.5644,0.5683,0.5738,0.5776,0.5815,0.587,0.5925,0.597,0.5987,0.6004,0.599,0.6013,0.6042,0.6049,0.6055,0.605,0.5993,0.5993,0.5978,0.5978,0.5977]}]]